Location: ??
(35.1715°N, 139.6450°E)
Time: 09:25:43
(UTC+00:00)

Meteor 1-24 Rocket - Pass Details

Date: 05 August 2024
Orbit: 790 x 925 km, 81.3° (Epoch: 15 September)

Event Time Altitude Azimuth Distance (km) Brightness Sun altitude
Rises 19:17:06 0° 341° (NNW) 3,493 7.0 -7.8°
Reaches altitude 10° 19:19:42 10° 333° (NNW) 2,569 6.2 -7.3°
Maximum altitude 19:25:00 37° 269° (W) 1,391 4.4 -6.3°
Drops below altitude 10° 19:30:24 10° 204° (SSW) 2,609 5.8 -5.3°
Sets 19:33:04 0° 196° (SSW) 3,554 6.6 -4.8°
